DateTimeUTC,F1_A11,F1_S11,BsB_S11,BsG_S11,BsR_S11,BbsB_S11,BbsG_S11,BbsR_S11,BaB_A11,BaG_A11,BaR_A11,Tu_S11,T_S11,Uu_S11,U_S11,P_S11,T1_A11
2021-10-05T15:00:00Z,00000200,21000000,,,,,,,-000.11,-000.35,0000.38,17.1,23.9,01.2,00.8,0669.0,30.9
2021-10-05T15:01:00Z,00000200,21000000,,,,,,,-000.14,-000.05,0000.32,17.1,23.9,01.2,00.8,0669.0,30.9
2021-10-05T15:02:00Z,00000200,21000000,,,,,,,-000.06,0000.30,-000.29,17.1,23.9,01.2,00.8,0669.0,30.9
2021-10-05T15:03:00Z,00000200,61000000,,,,,,,0067.57,0061.38,0047.69,17.1,23.9,01.2,00.8,0669.0,30.9
2021-10-05T15:04:00Z,00000200,41000000,0011.82,0009.05,0006.13,0002.57,0002.47,0001.68,0197.10,0181.44,0143.24,17.6,23.9,01.2,00.8,0670.0,30.9
2021-10-05T15:05:00Z,00000200,01000000,0009.01,0006.79,0003.96,0001.95,0002.01,0001.27,0111.88,0101.34,0078.45,17.7,23.9,01.4,00.9,0670.0,30.9
2021-10-05T15:06:00Z,00000200,01000000,0010.33,0007.67,0005.21,0001.77,0002.30,0001.54,0180.65,0168.38,0133.74,17.8,24.0,01.6,01.1,0670.0,30.9
2021-10-05T15:07:00Z,00000200,01000000,0001.43,0000.83,0000.49,0000.25,0000.40,0000.14,0015.07,0013.89,0011.47,17.8,24.0,01.7,01.2,0670.0,30.9
2021-10-05T15:08:00Z,00000200,01000000,0000.24,0000.22,0000.19,0000.14,0000.27,0000.41,0001.72,0001.32,0000.75,17.7,23.9,01.7,01.2,0670.0,30.9
2021-10-05T15:09:00Z,00000200,01000000,-000.19,0000.28,0000.10,0000.23,0000.05,0000.03,0000.36,0000.09,-000.09,17.7,23.9,01.5,01.1,0670.0,30.9
2021-10-05T15:10:00Z,00000200,01000000,0000.64,0000.09,-000.06,-000.70,0000.01,-000.17,0000.49,0000.66,0000.70,17.6,23.9,01.5,01.0,0670.1,30.9
2021-10-05T15:11:00Z,00000200,01000000,0000.90,0000.21,0000.21,0000.25,-000.16,-000.08,0000.34,0000.49,0000.37,17.6,23.9,01.4,01.0,0670.1,30.9
2021-10-05T15:12:00Z,00000200,01000000,0000.01,-000.14,-000.23,-000.56,0000.04,-000.23,0000.60,0000.53,0000.56,17.6,23.8,01.4,01.0,0670.1,30.9
2021-10-05T15:13:00Z,00000200,01000000,-000.33,0000.25,0000.22,-000.70,0000.20,0000.19,0000.40,0000.26,0000.11,17.5,23.8,01.5,01.0,0670.1,30.9
2021-10-05T15:14:00Z,00000200,01000000,0000.13,-000.31,-000.03,0000.17,0000.27,-000.11,0000.31,0000.42,0000.11,17.5,23.8,01.5,01.0,0670.1,30.9
2021-10-05T15:15:00Z,00000200,01000000,-000.36,-000.18,0000.04,-000.23,-000.06,-000.20,0000.79,0000.91,0000.93,17.5,23.8,01.5,01.0,0670.1,30.9
2021-10-05T15:16:00Z,00000200,01000000,0000.18,-000.02,0000.30,-000.34,0000.10,0000.38,0000.44,0000.45,0000.13,17.6,23.8,01.6,01.1,0670.1,30.9
2021-10-05T15:17:00Z,00000200,01000000,-000.08,0000.06,-000.05,-000.13,0000.22,0000.10,0000.38,0000.32,0000.50,17.7,23.9,01.7,01.1,0670.1,30.9
2021-10-05T15:18:00Z,00000200,01000000,-000.06,-000.07,0000.17,0000.01,0000.17,0000.18,0000.48,0000.60,0000.74,17.7,23.9,01.8,01.2,0670.1,30.9
2021-10-05T15:19:00Z,00000200,01000000,0000.15,0000.29,0000.10,-000.29,0000.11,-000.07,0000.38,0000.03,-000.06,17.8,23.9,01.8,01.2,0670.2,30.9
2021-10-05T15:20:00Z,00000200,01000000,0000.60,-000.10,0000.16,-000.06,0000.20,0000.21,0000.14,-000.02,0000.08,17.7,23.9,01.7,01.2,0670.1,30.9
2021-10-05T15:21:00Z,00000200,01000000,-000.17,-000.05,0000.15,-000.14,-000.01,-000.36,0000.41,0000.55,0000.06,17.7,23.9,01.8,01.2,0670.2,30.9
2021-10-05T15:22:00Z,00000200,00000000,0000.28,0000.19,-000.13,0000.30,0000.15,-000.01,0000.15,0000.02,0000.24,17.7,23.9,01.9,01.3,0670.2,30.9
2021-10-05T15:23:00Z,00000200,01000000,-000.35,0000.04,0000.21,-000.34,0000.44,0000.04,0000.82,0000.94,0000.54,17.6,23.9,02.0,01.3,0670.2,30.9
2021-10-05T15:24:00Z,00000200,00000000,0000.13,-000.03,0000.32,0000.47,-000.13,0000.01,-000.03,-000.09,0000.15,17.6,23.9,02.0,01.4,0670.2,30.9
2021-10-05T15:25:00Z,00000200,00000000,0000.89,0000.11,-000.05,-000.25,0000.11,-000.05,0000.22,0000.09,0000.16,17.6,23.9,02.1,01.4,0670.2,30.9
2021-10-05T15:26:00Z,00000200,00000000,0000.67,-000.01,0000.16,0000.21,0000.05,0000.14,0000.15,0000.06,0000.52,17.6,23.8,02.2,01.5,0670.3,30.9
2021-10-05T15:27:00Z,00000200,00000000,-000.71,0000.38,0000.07,0000.23,0000.17,0000.10,0000.73,0000.74,-000.03,17.5,23.8,02.1,01.5,0670.3,30.9
2021-10-05T15:28:00Z,00000200,00000000,-000.06,0000.20,0000.04,-000.21,0000.29,0000.01,0002.50,0002.64,0001.58,17.5,23.8,02.4,01.6,0670.3,30.9
2021-10-05T15:29:00Z,00000200,00000000,0001.07,0000.46,-000.02,0000.35,-000.22,-000.10,0009.16,0007.89,0006.55,17.5,23.8,02.5,01.7,0670.2,30.9
2021-10-05T15:30:00Z,00000200,00000000,0005.83,0003.69,0002.12,0000.68,0000.95,0000.61,0071.05,0065.60,0051.84,17.5,23.8,02.6,01.8,0670.2,30.9
2021-10-05T15:31:00Z,00000200,00000000,0005.37,0003.68,0002.62,0001.52,0001.24,0000.76,0080.60,0074.08,0058.08,17.6,23.8,02.7,01.9,0670.2,30.9
2021-10-05T15:32:00Z,00000200,00000000,0004.41,0003.48,0002.05,0001.13,0000.74,0000.45,0068.70,0063.27,0049.75,17.6,23.8,02.8,01.9,0670.2,30.9
2021-10-05T15:33:00Z,00000200,00000000,0003.50,0002.59,0001.36,0000.59,0000.57,0000.47,0046.01,0041.97,0033.42,17.7,23.8,02.8,01.9,0670.2,30.9
2021-10-05T15:34:00Z,00000200,00000000,0003.70,0002.14,0001.40,0000.19,0000.68,0000.56,0044.74,0041.49,0032.67,17.7,23.9,02.7,01.8,0670.2,30.9
2021-10-05T15:35:00Z,00000200,00000000,0001.37,0000.88,0000.44,0000.54,0000.56,0000.22,0011.29,0010.64,0008.47,17.7,23.9,02.7,01.9,0670.2,30.9
2021-10-05T15:36:00Z,00000200,00000000,0001.00,0000.26,0000.33,0000.10,-000.09,0000.24,0007.46,0006.87,0005.09,17.6,23.8,02.9,02.0,0670.2,30.9
2021-10-05T15:37:00Z,00000200,00000000,0000.97,0000.17,0000.07,0000.11,0000.38,0000.08,0003.10,0002.88,0002.31,17.6,23.8,03.0,02.0,0670.2,30.9
2021-10-05T15:38:00Z,00000200,00000000,0000.43,0000.20,-000.23,-000.31,-000.12,-000.03,0001.50,0001.66,0001.08,17.6,23.8,02.9,02.0,0670.2,30.9
2021-10-05T15:39:00Z,00000200,00000000,-000.37,0000.10,0000.22,-000.13,0000.38,-000.14,0000.54,-000.00,0000.09,17.6,23.8,02.9,02.0,0670.2,30.9
2021-10-05T15:40:00Z,00000200,00000000,0000.71,0000.28,0000.40,-000.47,0000.08,0000.08,-000.27,-000.20,0000.14,17.5,23.8,02.7,01.9,0670.2,30.9
2021-10-05T15:41:00Z,00000200,00000000,0000.97,0000.04,0000.12,-000.08,-000.15,0000.23,0000.51,0000.56,0000.12,17.5,23.8,02.6,01.7,0670.2,30.9
2021-10-05T15:42:00Z,00000200,00000000,-000.04,0000.15,-000.14,0000.56,-000.10,0000.06,0000.03,0000.10,0000.52,17.5,23.8,02.3,01.6,0670.2,30.9
2021-10-05T15:43:00Z,00000200,00000000,0000.51,-000.35,-000.13,0000.08,0000.26,-000.22,0000.39,0000.22,0000.12,17.5,23.7,02.5,01.7,0670.2,30.9
2021-10-05T15:44:00Z,00000200,00000000,0000.20,0000.18,0000.31,-000.15,-000.06,0000.07,0000.47,0000.50,0000.40,17.4,23.7,02.6,01.7,0670.2,30.9
2021-10-05T15:45:00Z,00000200,00000000,0000.66,0000.31,0000.21,0000.71,0000.21,0000.28,0000.39,0000.70,0000.50,17.5,23.7,02.8,01.9,0670.2,30.9
2021-10-05T15:46:00Z,00000200,00000000,0000.21,0000.02,0000.17,-000.04,-000.11,0000.25,0000.87,0000.44,0000.43,17.5,23.7,02.7,01.9,0670.2,30.9
2021-10-05T15:47:00Z,00000200,00000000,0000.19,0000.20,0000.20,-000.02,-000.07,-000.04,0000.25,0000.67,0000.47,17.6,23.8,02.8,01.9,0670.2,30.9
2021-10-05T15:48:00Z,00000200,00000000,-000.31,-000.20,0000.12,0000.07,0000.10,0000.12,0000.89,0000.51,0000.53,17.7,23.8,02.9,02.0,0670.2,30.9
2021-10-05T15:49:00Z,00000200,00000000,-000.23,0000.20,-000.21,0000.55,-000.07,-000.03,0000.46,0000.41,0000.24,17.8,23.9,03.0,02.0,0670.2,30.9
2021-10-05T15:50:00Z,00000200,00000000,-000.16,-000.06,0000.26,0000.30,0000.01,0000.08,0000.50,0000.36,0000.41,17.9,23.9,03.3,02.3,0670.2,30.9
2021-10-05T15:51:00Z,00000200,00000000,0000.11,0000.01,-000.13,-000.32,0000.14,0000.06,0001.04,0000.64,0000.59,17.9,24.0,03.5,02.4,0670.2,30.9
2021-10-05T15:52:00Z,00000200,00000000,0000.55,-000.01,0000.26,-000.08,0000.12,0000.34,0000.32,0000.90,0000.36,17.9,23.9,03.7,02.6,0670.2,30.9
2021-10-05T15:53:00Z,00000200,00000000,0000.12,0000.25,0000.24,-000.68,0000.01,0000.20,0000.40,0000.31,0000.44,17.8,23.9,03.9,02.7,0670.2,30.9
2021-10-05T15:54:00Z,00000200,00000000,0000.42,-000.01,0000.25,0000.27,-000.09,0000.08,0000.51,0000.39,-000.07,17.8,23.9,04.0,02.7,0670.2,30.9
2021-10-05T15:55:00Z,00000200,00000000,0000.76,0000.16,-000.06,-000.15,0000.34,0000.17,0000.62,0000.50,0000.49,17.8,23.9,04.0,02.8,0670.2,30.9
2021-10-05T15:56:00Z,00000200,00000000,0000.77,0000.21,0000.55,0000.47,0000.23,0000.18,-000.03,0000.17,0000.69,17.7,23.9,04.0,02.8,0670.2,30.9
2021-10-05T15:57:00Z,00000200,40000000,,,,,,,-000.52,-000.79,-001.14,17.8,23.9,03.5,02.4,0670.2,30.9
2021-10-05T15:58:00Z,00000200,60000000,,,,,,,0000.31,0000.64,0000.70,17.5,24.0,03.3,02.2,0669.2,30.9
2021-10-05T15:59:00Z,00000200,20000000,,,,,,,0000.35,0000.50,0000.07,17.4,24.1,03.6,02.4,0669.2,30.9
